Simultaneous Nadir Overpasses (SNOs) Predictions

Prediction of SNOs between AQUA and NOAA-19 Satellite Orbit:

Table of predicted SNOs for the next 14.0 days since TLE Epoch: 4/5/2019
Index Date (AQUA) Time (AQUA) Lat,Lon (AQUA) SZA (AQUA ) Date (NOAA-19) Time (NOAA-19) Lat,Lon (NOAA-19) SZA (NOAA-19 ) Distance(km) Time Diff (sec)
1 04/05/2019 21:19:59 80.51,-175.12 76.08 04/05/2019 21:20:05 80.50,-174.97 76.06 3.19 6
2 04/08/2019 02:53:42 -80.50, -78.39 104.80 04/08/2019 02:53:29 -80.49, -78.39 104.80 0.92 13
3 04/10/2019 08:27:26 80.50, 18.14 74.37 04/10/2019 08:27:01 80.48, 18.21 74.36 2.29 25
4 04/10/2019 09:16:52 -80.49,-174.14 105.66 04/10/2019 09:17:56 -80.50,-174.16 105.68 1.01 64
5 04/12/2019 14:01:09 -80.49, 114.78 106.48 04/12/2019 14:00:24 -80.48, 114.91 106.48 2.61 45
6 04/12/2019 14:50:36 80.50, -77.63 73.52 04/12/2019 14:51:28 80.50, -77.49 73.49 2.60 52
7 04/14/2019 19:34:52 80.47,-148.41 72.66 04/14/2019 19:33:56 80.48,-148.37 72.69 1.70 56
8 04/14/2019 20:24:19 -80.49, 18.98 107.31 04/14/2019 20:24:51 -80.49, 19.12 107.34 2.73 32
9 04/17/2019 01:08:35 -80.47, -51.84 108.15 04/17/2019 01:07:26 -80.35, -54.18 107.97 45.36 69
10 04/17/2019 01:58:03 80.50, 115.45 71.91 04/17/2019 01:58:24 80.48, 115.54 71.87 3.14 21




NCC Satellite Simultaneous Nadir Overpasses (SNOs) Prediction Service
